Location: Mountain View
(37.3861°N, 122.0839°W)
Time: 01:48:54
(UTC-07:00)

Amateur Radio Satellites - All Passes

Search period start: 27 June 2017 01:18
Search period end: 28 June 2017 01:18
Location: Mountain View, 37.3861°N, 122.0839°W

Satellite Date Start Highest point End Downlink Frequencies (MHz)
Time Altitude Azimuth
UKube-1 27 Jun 01:20:12 01:24:11 39° 72° (ENE) 01:28:11 .
50 SAT 27 Jun 01:26:59 01:30:20 65° 259° (W) 01:33:41 437.505
POLYITAN 1 27 Jun 01:43:04 01:46:51 31° 289° (WNW) 01:50:35 437.675
Oscar 19 27 Jun 01:44:55 01:48:50 22° 94° (E) 01:52:45 437.125/150
QB50P2 27 Jun 01:54:24 01:57:41 22° 291° (WNW) 02:00:57 145.880/145.840
BUGSAT 1 27 Jun 01:57:27 02:01:43 86° 96° (E) 02:05:56 437.445
EO-79 27 Jun 02:19:21 02:21:25 13° 295° (WNW) 02:23:28 145.935-145.965
RS-15 27 Jun 02:23:51 02:31:11 17° 4° (N) 02:38:23 29.354- 29.394
DUCHIFAT 1 27 Jun 02:31:41 02:33:20 12° 296° (WNW) 02:34:59 145.980
MOZHAYETS 4 27 Jun 02:42:03 02:45:08 18° 66° (ENE) 02:48:12
DX 1 27 Jun 02:44:13 02:46:44 15° 267° (W) 02:49:16 434.975-435.025
Gurwin Techsat 1B 27 Jun 02:50:37 02:55:54 61° 101° (E) 03:01:09 435.225
UKube-1 27 Jun 02:57:42 03:00:20 16° 266° (W) 03:02:58 .
ITUPSAT 1 27 Jun 03:15:29 03:20:14 65° 74° (ENE) 03:25:01 437.325
NO-84 27 Jun 03:20:47 03:23:17 15° 25° (NNE) 03:25:47 435.350 FM
Oscar 19 27 Jun 03:23:31 03:28:15 39° 289° (WNW) 03:32:59 437.125/150
BEESAT 27 Jun 03:24:16 03:29:03 82° 77° (ENE) 03:33:52 436.000
KKS-1 27 Jun 04:03:44 04:06:21 16° 65° (ENE) 04:08:59 437.445
ITAMSAT 1 27 Jun 04:04:34 04:09:24 37° 98° (E) 04:14:12 435.822/435.867
AO-7 27 Jun 04:09:12 04:17:07 44° 100° (E) 04:24:58 .
MOZHAYETS 4 27 Jun 04:17:31 04:21:55 42° 262° (W) 04:26:20
STARS 27 Jun 04:29:30 04:31:13 12° 64° (ENE) 04:32:56 437.465
Gurwin Techsat 1B 27 Jun 04:32:06 04:35:18 16° 297° (WNW) 04:38:29 435.225
RS-15 27 Jun 04:38:38 04:49:19 33° 38° (NE) 04:59:32 29.354- 29.394
AO-85 27 Jun 04:51:04 04:54:29 24° 52° (NE) 04:58:03 145.980
ITUPSAT 1 27 Jun 04:56:47 04:58:26 12° 269° (W) 05:00:06 437.325
NO-84 27 Jun 04:57:15 05:01:37 64° 43° (NE) 05:05:51 435.350 FM
CUBESAT XI-V 27 Jun 05:02:53 05:07:31 80° 257° (WSW) 05:12:10 437.345
BEESAT 3 27 Jun 05:25:32 05:29:04 29° 53° (NE) 05:32:32 437.485
KKS-1 27 Jun 05:38:17 05:42:30 44° 261° (W) 05:46:46 437.445
ITAMSAT 1 27 Jun 05:44:26 05:48:38 25° 294° (WNW) 05:52:50 435.822/435.867
AO-7 27 Jun 06:02:07 06:09:43 40° 298° (WNW) 06:17:18 .
STARS 27 Jun 06:02:42 06:07:00 58° 259° (W) 06:11:21 437.465
XW-2F 27 Jun 06:15:01 06:16:11 11° 92° (E) 06:17:20 145.980 - 146.000
DOVE 4 27 Jun 06:15:38 06:20:21 40° 98° (E) 06:25:12 437.250
XW-2D 27 Jun 06:19:28 06:21:34 14° 93° (E) 06:23:40 145.860 - 145.880
STRAND 1 27 Jun 06:23:24 06:25:44 13° 62° (ENE) 06:28:03 437.568
Tancredo 1 27 Jun 06:26:08 06:27:01 11° 128° (SE) 06:27:55 437.200
XW-2B 27 Jun 06:28:05 06:30:42 18° 94° (E) 06:33:17 145.730 - 145.750
BEESAT 2 27 Jun 06:28:23 06:32:20 48° 57° (ENE) 06:36:12 435.950
LilacSat-2 27 Jun 06:29:24 06:32:14 20° 95° (E) 06:35:03 437.200
AO-85 27 Jun 06:31:09 06:34:51 30° 246° (WSW) 06:38:46 145.980
NO-84 27 Jun 06:36:12 06:38:44 15° 239° (WSW) 06:41:13 435.350 FM
XW-2C 27 Jun 06:43:07 06:46:23 28° 97° (E) 06:49:38 145.795 - 145.815
RS-15 27 Jun 06:51:06 07:03:13 81° 243° (WSW) 07:14:39 29.354- 29.394
KAITUO 1B 27 Jun 06:52:38 06:55:51 28° 96° (E) 06:59:03 145.475/437.950
CUTE-I 27 Jun 07:00:16 07:05:21 41° 99° (E) 07:10:23 437.470
BEESAT 3 27 Jun 07:03:24 07:06:27 21° 249° (WSW) 07:09:27 437.485
ISS 27 Jun 07:06:16 07:08:14 15° 129° (SE) 07:10:12 437.550
NUDT-PHONESAT 27 Jun 07:25:15 07:28:57 79° 102° (ESE) 07:32:37 437.300
O/OREOS (USA 219) 27 Jun 07:27:11 07:31:34 53° 67° (ENE) 07:35:55 437.305
SEEDS 27 Jun 07:38:44 07:40:06 11° 91° (E) 07:41:28 437.485
YUBILEINY 27 Jun 07:41:48 07:46:20 15° 62° (ENE) 07:50:49 435.215
XW-2A 27 Jun 07:46:50 07:48:38 14° 93° (E) 07:50:25 145.665 - 145.685
XW-2F 27 Jun 07:46:58 07:50:29 39° 286° (WNW) 07:53:58 145.980 - 146.000
XW-2D 27 Jun 07:52:29 07:55:50 31° 288° (WNW) 07:59:09 145.860 - 145.880
DOVE 4 27 Jun 07:53:57 07:57:45 22° 292° (WNW) 08:01:42 437.250
CUTE 1.7 + AOD 2 27 Jun 07:57:48 08:01:36 32° 97° (E) 08:05:22 437.475
STRAND 1 27 Jun 07:59:08 08:04:15 73° 258° (WSW) 08:09:25 437.568
Tancredo 1 27 Jun 07:59:16 08:02:13 53° 322° (NW) 08:05:13 437.200
XW-2B 27 Jun 08:01:43 08:04:51 25° 289° (WNW) 08:07:58 145.730 - 145.750
HO-68 27 Jun 08:02:04 08:08:52 44° 99° (E) 08:15:36 435.675
LilacSat-2 27 Jun 08:03:25 08:06:26 23° 290° (WNW) 08:09:26 437.200
BEESAT 2 27 Jun 08:07:47 08:09:37 13° 252° (WSW) 08:11:26 435.950
XW-2C 27 Jun 08:17:55 08:20:20 16° 291° (WNW) 08:22:44 145.795 - 145.815
AAUSAT CUBESAT 2 27 Jun 08:22:40 08:25:25 17° 94° (E) 08:28:09 437.432
KAITUO 1B 27 Jun 08:27:17 08:29:37 16° 291° (WNW) 08:31:56 145.475/437.950
CUBEBUG 2 27 Jun 08:28:46 08:33:09 39° 97° (E) 08:37:24 437.445
CUTE-I 27 Jun 08:40:54 08:45:06 24° 294° (WNW) 08:49:16 437.470
ISS 27 Jun 08:41:16 08:44:25 46° 324° (NW) 08:47:36 437.550
M-CUBED/EXP-1 PRIME 27 Jun 08:41:33 08:42:10 10° 62° (ENE) 08:42:46 437.505
ZACube-1 27 Jun 08:49:35 08:52:51 20° 93° (E) 08:56:04 437.345
UWE-3 27 Jun 08:58:18 09:02:43 48° 99° (E) 09:06:58 435.000/436.395/437.385
UNISAT 6 27 Jun 09:00:41 09:02:03 11° 63° (ENE) 09:03:27 437.425
FO-29 27 Jun 09:03:11 09:08:09 26° 62° (ENE) 09:13:35 435.910
RS-15 27 Jun 09:06:56 09:13:33 17° 263° (W) 09:20:02 29.354- 29.394
O/OREOS (USA 219) 27 Jun 09:08:40 09:10:26 12° 262° (W) 09:12:12 437.305
PRISM 27 Jun 09:10:07 09:11:45 12° 65° (ENE) 09:13:22 437.425
SEEDS 27 Jun 09:12:01 09:16:03 49° 286° (WNW) 09:20:03 437.485
XW-2A 27 Jun 09:18:30 09:21:23 26° 288° (WNW) 09:24:14 145.665 - 145.685
CUTE 1.7 + AOD 2 27 Jun 09:34:17 09:37:10 18° 292° (WNW) 09:40:03 437.475
YUBILEINY 27 Jun 09:35:42 09:44:35 81° 83° (E) 09:53:22 435.215
Tancredo 1 27 Jun 09:37:48 09:38:22 10° 340° (NNW) 09:38:55 437.200
AO-73 27 Jun 09:48:33 09:52:59 88° 100° (E) 09:57:16 145.935
HO-68 27 Jun 09:50:06 09:56:22 34° 296° (WNW) 10:02:35 435.675
TIGRISAT 27 Jun 09:51:13 09:55:25 36° 71° (ENE) 09:59:41 435.000
AAUSAT CUBESAT 2 27 Jun 09:57:15 10:00:55 32° 288° (WNW) 10:04:35 437.432
EO-88 27 Jun 10:01:27 10:02:54 12° 93° (E) 10:04:20 145.990 - 145.960
CUBEBUG 2 27 Jun 10:06:08 10:09:25 19° 293° (WNW) 10:12:39 437.445
M-CUBED/EXP-1 PRIME 27 Jun 10:13:16 10:16:19 34° 256° (WSW) 10:19:19 437.505
Oscar 11 27 Jun 10:13:19 10:17:34 62° 285° (WNW) 10:21:48 .
ISS 27 Jun 10:20:39 10:21:34 11° 342° (NNW) 10:22:28 437.550
ZACube-1 27 Jun 10:25:15 10:29:10 31° 289° (WNW) 10:32:59 437.345
UNISAT 6 27 Jun 10:33:30 10:38:05 72° 258° (WSW) 10:42:46 437.425
UWE-3 27 Jun 10:36:06 10:38:41 15° 295° (WNW) 10:41:14 435.000/436.395/437.385
PRISM 27 Jun 10:42:39 10:46:34 48° 260° (W) 10:50:30 437.425
PCSat 27 Jun 10:45:39 10:48:37 15° 104° (ESE) 10:51:36 145.827
FO-29 27 Jun 10:46:52 10:52:41 50° 262° (W) 10:59:19 435.910
POLYITAN 1 27 Jun 10:59:54 11:01:36 12° 64° (ENE) 11:03:18 437.675
DELFI C3 27 Jun 11:04:56 11:08:48 58° 285° (WNW) 11:12:41 145.870
QB50P2 27 Jun 11:09:38 11:12:26 17° 67° (ENE) 11:15:14 145.880/145.840
TIGRISAT 27 Jun 11:28:47 11:32:10 20° 267° (W) 11:35:36 435.000
EO-79 27 Jun 11:32:24 11:36:01 28° 70° (ENE) 11:39:41 145.935-145.965
EO-88 27 Jun 11:33:22 11:36:41 35° 287° (WNW) 11:40:01 145.990 - 145.960
YUBILEINY 27 Jun 11:34:41 11:40:14 19° 281° (W) 11:45:47 435.215
DUCHIFAT 1 27 Jun 11:43:44 11:47:25 30° 71° (ENE) 11:51:08 145.980
AIST 2D 27 Jun 11:46:55 11:50:28 83° 258° (WSW) 11:54:02 435.315
LO-87 27 Jun 11:48:56 11:52:20 35° 98° (E) 11:55:41 145.935 - 145.965
NANOSAT C BR1 27 Jun 11:53:04 11:57:05 43° 73° (ENE) 12:01:08 145.865
PCSat 27 Jun 12:26:02 12:31:24 65° 299° (WNW) 12:36:48 145.827
JUGNU 27 Jun 12:26:48 12:27:43 10° 169° (SSE) 12:28:40 437.505
POLYITAN 1 27 Jun 12:32:41 12:36:51 55° 260° (W) 12:41:05 437.675
QB50P2 27 Jun 12:43:58 12:47:54 36° 262° (W) 12:51:52 145.880/145.840
VELOX 1 27 Jun 12:44:22 12:47:38 20° 95° (E) 12:50:52 145.980
BUGSAT 1 27 Jun 12:44:48 12:48:43 43° 73° (ENE) 12:52:41 437.445
SPROUT 27 Jun 12:48:46 12:52:18 24° 96° (E) 12:55:48 437.525
Tancredo 1 27 Jun 12:51:01 12:52:01 11° 21° (NNE) 12:53:02 437.200
ESTCUBE 1 27 Jun 12:51:25 12:55:53 72° 284° (WNW) 13:00:20 437.505/2401.250
Oscar 19 27 Jun 12:59:44 13:04:01 27° 68° (ENE) 13:08:17 437.125/150
EO-79 27 Jun 13:08:28 13:11:45 22° 265° (W) 13:15:03 145.935-145.965
DUCHIFAT 1 27 Jun 13:19:58 13:23:05 20° 266° (W) 13:26:13 145.980
LO-87 27 Jun 13:23:46 13:25:24 13° 293° (WNW) 13:27:01 145.935 - 145.965
SO-50 27 Jun 13:28:26 13:32:21 29° 113° (ESE) 13:36:16 436.795
NANOSAT C BR1 27 Jun 13:30:49 13:32:59 14° 268° (W) 13:35:10 145.865
ISS 27 Jun 13:35:09 13:37:05 15° 23° (NNE) 13:39:01 437.550
Gurwin Techsat 1B 27 Jun 14:09:35 14:14:53 79° 75° (ENE) 14:20:13 435.225
JUGNU 27 Jun 14:12:56 14:15:52 14° 179° (S) 14:18:49 437.505
PCSat 27 Jun 14:14:55 14:15:52 10° 319° (NW) 14:16:47 145.827
VELOX 1 27 Jun 14:20:08 14:24:06 33° 289° (WNW) 14:28:04 145.980
BUGSAT 1 27 Jun 14:22:14 14:24:16 13° 268° (W) 14:26:18 437.445
50 SAT 27 Jun 14:23:52 14:27:08 46° 286° (WNW) 14:30:26 437.505
SPROUT 27 Jun 14:24:33 14:28:06 25° 290° (WNW) 14:31:38 437.525
Tancredo 1 27 Jun 14:25:04 14:28:06 63° 39° (NE) 14:31:06 437.200
DX 1 27 Jun 14:32:02 14:36:25 78° 285° (WNW) 14:40:47 434.975-435.025
Oscar 19 27 Jun 14:38:34 14:43:10 33° 263° (W) 14:47:47 437.125/150
UKube-1 27 Jun 14:44:32 14:48:52 85° 281° (W) 14:53:11 .
AO-7 27 Jun 15:05:48 15:13:42 51° 65° (ENE) 15:21:40 .
SO-50 27 Jun 15:08:48 15:12:45 28° 309° (NW) 15:16:41 436.795
ISS 27 Jun 15:10:41 15:13:58 88° 24° (NNE) 15:17:16 437.550
ITUPSAT 1 27 Jun 15:18:56 15:22:20 19° 94° (E) 15:25:43 437.325
ITAMSAT 1 27 Jun 15:20:24 15:25:21 46° 71° (ENE) 15:30:20 435.822/435.867
BEESAT 27 Jun 15:27:00 15:30:52 24° 96° (E) 15:34:40 436.000
Gurwin Techsat 1B 27 Jun 15:54:04 15:55:22 11° 270° (W) 15:56:39 435.225
JUGNU 27 Jun 16:02:07 16:04:02 11° 189° (S) 16:05:56 437.505
SRMSAT 27 Jun 16:02:36 16:05:09 13° 174° (S) 16:07:42 437.500
MOZHAYETS 4 27 Jun 16:14:15 16:18:43 50° 100° (E) 16:23:08
ITUPSAT 1 27 Jun 16:55:49 17:00:17 39° 289° (WNW) 17:04:43 437.325
AO-7 27 Jun 16:59:19 17:06:36 34° 262° (W) 17:13:59 .
ITAMSAT 1 27 Jun 17:01:23 17:05:01 19° 266° (W) 17:08:40 435.822/435.867
CUBESAT XI-V 27 Jun 17:01:43 17:05:43 29° 96° (E) 17:09:41 437.345
BEESAT 27 Jun 17:04:24 17:08:37 32° 291° (WNW) 17:12:48 436.000
DOVE 4 27 Jun 17:19:59 17:23:29 26° 70° (ENE) 17:27:05 437.250
XW-2C 27 Jun 17:24:15 17:25:35 11° 66° (ENE) 17:26:53 145.795 - 145.815
KKS-1 27 Jun 17:30:59 17:35:11 38° 99° (E) 17:39:21 437.445
KAITUO 1B 27 Jun 17:32:49 17:33:47 11° 66° (ENE) 17:34:44 145.475/437.950
SRMSAT 27 Jun 17:50:43 17:53:28 13° 184° (S) 17:56:13 437.500
MOZHAYETS 4 27 Jun 17:52:54 17:55:25 15° 295° (WNW) 17:57:55
STARS 27 Jun 17:54:13 17:58:04 28° 97° (E) 18:01:52 437.465
NUDT-PHONESAT 27 Jun 18:02:39 18:05:46 25° 71° (ENE) 18:08:52 437.300
CUTE-I 27 Jun 18:19:58 18:25:08 55° 72° (ENE) 18:30:22 437.470
XW-2F 27 Jun 18:25:05 18:28:52 65° 76° (ENE) 18:32:39 145.980 - 146.000
HO-68 27 Jun 18:29:16 18:35:04 27° 62° (ENE) 18:40:52 435.675
XW-2D 27 Jun 18:30:46 18:34:36 85° 77° (ENE) 18:38:26 145.860 - 145.880
CUBESAT XI-V 27 Jun 18:39:14 18:42:56 25° 291° (WNW) 18:46:38 437.345
XW-2B 27 Jun 18:39:51 18:43:40 76° 258° (WSW) 18:47:31 145.730 - 145.750
LilacSat-2 27 Jun 18:42:04 18:45:54 65° 259° (W) 18:49:45 437.200
CUTE 1.7 + AOD 2 27 Jun 18:49:01 18:52:00 19° 68° (ENE) 18:54:58 437.475
XW-2C 27 Jun 18:55:39 18:59:19 45° 261° (W) 19:03:02 145.795 - 145.815
DOVE 4 27 Jun 18:57:58 19:01:09 21° 266° (W) 19:04:26 437.250
RS-15 27 Jun 19:03:34 19:10:58 19° 98° (E) 19:18:27 29.354- 29.394
KAITUO 1B 27 Jun 19:03:41 19:07:20 46° 261° (W) 19:10:58 145.475/437.950
AO-85 27 Jun 19:06:42 19:07:32 11° 109° (ESE) 19:08:23 145.980
KKS-1 27 Jun 19:08:21 19:11:25 18° 294° (WNW) 19:14:29 437.445
CUBEBUG 2 27 Jun 19:24:41 19:28:30 26° 69° (ENE) 19:32:23 437.445
STARS 27 Jun 19:30:41 19:34:14 24° 292° (WNW) 19:37:46 437.465
PCSat 27 Jun 19:35:56 19:36:48 10° 41° (NE) 19:37:40 145.827
NUDT-PHONESAT 27 Jun 19:36:57 19:39:36 18° 265° (W) 19:42:16 437.300
ZACube-1 27 Jun 19:44:06 19:46:28 14° 65° (ENE) 19:48:50 437.345
XW-2A 27 Jun 19:46:49 19:50:13 64° 77° (ENE) 19:53:39 145.665 - 145.685
UWE-3 27 Jun 19:52:53 19:56:55 31° 70° (ENE) 20:01:00 435.000/436.395/437.385
SEEDS 27 Jun 20:00:57 20:05:09 82° 77° (ENE) 20:09:21 437.485
CUTE-I 27 Jun 20:02:12 20:05:29 16° 268° (W) 20:08:48 437.470
STRAND 1 27 Jun 20:11:46 20:16:43 45° 100° (E) 20:21:37 437.568
NO-84 27 Jun 20:13:22 20:16:01 19° 122° (ESE) 20:18:49 435.350 FM
HO-68 27 Jun 20:15:18 20:22:19 56° 258° (WSW) 20:29:23 435.675
BEESAT 2 27 Jun 20:19:30 20:21:25 13° 108° (ESE) 20:23:20 435.950
CUTE 1.7 + AOD 2 27 Jun 20:23:45 20:27:34 32° 263° (W) 20:31:24 437.475
AO-73 27 Jun 20:41:13 20:45:37 52° 74° (ENE) 20:50:04 145.935
YUBILEINY 27 Jun 20:41:20 20:46:38 18° 78° (ENE) 20:51:56 435.215
AO-85 27 Jun 20:43:27 20:47:27 55° 302° (WNW) 20:51:21 145.980
AAUSAT CUBESAT 2 27 Jun 20:44:26 20:48:32 67° 260° (W) 20:52:38 437.432
BEESAT 3 27 Jun 20:49:50 20:53:48 82° 301° (WNW) 20:57:50 437.485
CUBEBUG 2 27 Jun 21:01:01 21:04:58 28° 265° (W) 21:09:01 437.445
Oscar 11 27 Jun 21:05:27 21:09:47 75° 75° (ENE) 21:14:07 .
RS-15 27 Jun 21:09:24 21:21:30 83° 117° (ESE) 21:33:55 29.354- 29.394
PCSat 27 Jun 21:15:51 21:21:16 65° 61° (ENE) 21:26:38 145.827
ZACube-1 27 Jun 21:17:46 21:22:13 54° 260° (W) 21:26:44 437.345
UWE-3 27 Jun 21:29:41 21:33:20 23° 266° (W) 21:37:04 435.000/436.395/437.385
O/OREOS (USA 219) 27 Jun 21:37:04 21:41:37 86° 287° (WNW) 21:46:10 437.305
DELFI C3 27 Jun 21:47:51 21:51:40 54° 75° (ENE) 21:55:30 145.870
NO-84 27 Jun 21:49:33 21:53:14 44° 320° (NW) 21:57:13 435.350 FM
STRAND 1 27 Jun 21:51:50 21:55:32 20° 295° (WNW) 21:59:12 437.568
M-CUBED/EXP-1 PRIME 27 Jun 21:53:29 21:55:29 13° 100° (E) 21:57:32 437.505
BEESAT 2 27 Jun 21:54:54 21:58:43 45° 304° (NW) 22:02:37 435.950
FO-29 27 Jun 21:58:02 22:04:53 32° 94° (E) 22:11:30 435.910
SO-50 27 Jun 22:01:44 22:04:46 17° 46° (NE) 22:07:49 436.795
EO-88 27 Jun 22:08:21 22:11:58 65° 76° (ENE) 22:15:38 145.990 - 145.960
AO-73 27 Jun 22:19:53 22:22:06 13° 269° (W) 22:24:21 145.935
LO-87 27 Jun 22:25:07 22:26:13 11° 67° (ENE) 22:27:20 145.935 - 145.965
PRISM 27 Jun 22:26:05 22:29:28 24° 96° (E) 22:32:50 437.425
UNISAT 6 27 Jun 22:27:42 22:31:42 28° 96° (E) 22:35:35 437.425
YUBILEINY 27 Jun 22:33:24 22:42:13 84° 277° (W) 22:51:06 435.215
PCSat 27 Jun 23:01:03 23:04:02 15° 256° (WSW) 23:07:01 145.827
TIGRISAT 27 Jun 23:20:51 23:25:30 79° 283° (WNW) 23:30:01 435.000
RS-15 27 Jun 23:24:51 23:35:31 33° 322° (NW) 23:46:21 29.354- 29.394
M-CUBED/EXP-1 PRIME 27 Jun 23:26:21 23:29:59 42° 290° (WNW) 23:33:52 437.505
NO-84 27 Jun 23:30:20 23:31:47 11° 340° (NNW) 23:33:15 435.350 FM
VELOX 1 27 Jun 23:40:37 23:42:58 14° 65° (ENE) 23:45:18 145.980
SPROUT 27 Jun 23:41:01 23:43:30 15° 66° (ENE) 23:45:59 437.525
SO-50 27 Jun 23:41:06 23:45:32 54° 243° (WSW) 23:49:59 436.795
FO-29 27 Jun 23:42:28 23:50:01 52° 290° (WNW) 23:57:23 435.910
ESTCUBE 1 27 Jun 23:48:26 23:52:56 79° 77° (ENE) 23:57:26 437.505/2401.250
LO-87 27 Jun 23:55:56 23:59:15 38° 262° (W) 00:02:38 145.935 - 145.965
PRISM 28 Jun 00:01:20 00:04:38 23° 291° (WNW) 00:07:55 437.425
UNISAT 6 28 Jun 00:04:29 00:08:15 25° 291° (WNW) 00:11:56 437.425
POLYITAN 1 28 Jun 00:19:48 00:23:26 27° 96° (E) 00:27:01 437.675
QB50P2 28 Jun 00:30:30 00:34:31 39° 98° (E) 00:38:30 145.880/145.840
YUBILEINY 28 Jun 00:35:31 00:40:22 16° 297° (WNW) 00:45:16 435.215
AIST 2D 28 Jun 00:47:03 00:50:25 47° 285° (WNW) 00:53:46 435.315
50 SAT 28 Jun 00:53:26 00:56:33 36° 73° (ENE) 00:59:41 437.505
EO-79 28 Jun 00:53:49 00:58:06 69° 102° (ESE) 01:02:19 145.935-145.965
DUCHIFAT 1 28 Jun 01:04:28 01:08:44 74° 103° (ESE) 01:12:56 145.980
